OPS 4682 DEB, 38370

Orbit data source: Space-Track

OPS 4682 DEB, 38370 is space debris in LEO originally from a launch on Sat, 03 Apr 1965 UTC launched from the Air Force Western Test Range (AFWTR). Debris objects in space refer to the collection of defunct objects orbiting the Earth. Examples of debris include non-operational satellites, rocket bodies, and fragments generated from explosions, collisions, or faulty payload assembly.

Loading next visibility...
Identifier
38370, 1965-027BX
Orbit
LEO
Country
Flag of USUS
Related business
Manufacturer
Unknown
Mission
Spacecraft
Bus & Motor
Unknown
Mass
Unknown
Launch date (UTC)
1965-04-03 (61 years ago)
Launch vehicle
Unknown
Launch site
Air Force Western Test Range (AFWTR)
Object type
Payload
Rocket body
Debris
Shape & HBR
Unknown shape, 0.1 m
Radar Cross Section
Medium (>0.1 m² and <1 m²)

Expand to show TLE details & history
Last TLE update: 9 hours ago

TLE from 9 hours ago
0 OPS 4682 DEB
1 38370U 65027BX  26150.57654060 -.00001022  00000-0 -33761-2 0  9997
2 38370  90.2512  11.5572 0025330 325.8650  34.0843 13.00827111603516
Epoch: 2026-05-30T13:50Z
TLE epoch observation values (Epoch: 2026-05-30T13:50:13.107Z)
Latitude
-0.00003°
Longitude
-84.088°
Altitude
1,245.724 km
Speed
7.24 km/s
True Right ascension
00h 46m 13s
True Declination
0° 00' 00"
Sunlit
Object was in daylight at epoch
Visualization orbit readout
Latitude
Unknown
Longitude
Unknown
Altitude
Unknown
Speed
Unknown
Apparent Right ascension
Unknown
Apparent Declination
Unknown
Sunlit
N/A
Visualization observer readout
Local Sidereal Time
08:23:51
Azimuth
Unknown
Elevation
Unknown
Doppler factor
Unknown
Orbital elements
Apogee altitude
1,275.311 km
Perigee altitude
1,236.636 km
Semi-major axis
7,634.11 km
Eccentricity
0.00253
Inclination
90.2512°
RAAN
11.5572°
Arg. of periapsis
325.865°
True anomaly
34.24739°
Mean anomaly
34.0843°
Eccentric anomaly
34.1658°
Mean motion
3.25391 °/min
Orbital period
110.64 mins
BSTAR
-0.0033761
Loading maneuver chart data...
Computing Atmospheric mass density...
Loading historical data...
Loading historical data...
Loading historical data...
Loading historical data...
Loading historical data...
Loading historical data...
Loading historical data...

Documentation

Showing up to 5 results
|